#timestamp,LO_Frequency,Hit,StdDev 
1567630815.5,286047000.2,N
1567630835.3,286047002.1,N
1567630855.2,286047002.3,N
1567630875.9,286047002.4,N
1567630895.7,286047002.2,N
1567630915.6,286047001.8,N
1567630935.4,286047001.5,N
1567630955.2,286047002.0,N
1567630975.1,286046999.7,N
1567630976.0,286046999.7,N
1567630995.8,286046999.7,N
1567631015.7,286047000.3,N
1567631035.5,286047000.9,N
1567631055.3,286047000.5,N
1567631075.2,286047000.3,N
1567631095.0,286046999.8,N
1567631095.9,286046999.8,N
1567631115.7,286047000.2,N
1567631135.6,286047002.3,N
1567631155.4,286047004.4,Y
1567631175.3,286047002.7,P
1567631195.1,286047002.8,N
1567631215.8,286047002.6,N
1567631235.7,286047004.2,Y
1567631255.5,286047000.1,P
1567631275.4,286047000.6,N
1567631295.2,286047000.9,N
1567631315.0,286047000.3,N
1567631315.9,286047000.3,N
1567631335.8,286047000.7,N
1567631355.6,286046999.8,N
1567631375.5,286047000.3,N
1567631395.3,286047002.8,Y
1567631415.1,286047000.1,P
1567631435.9,286047000.6,N
1567631455.7,286047000.0,N
1567631475.6,286047001.0,Y
1567631495.4,286047000.2,P
1567631515.2,286047000.0,N
1567631535.1,286047000.1,N
1567631536.0,286047000.1,N
1567631555.8,286047000.5,Y
1567631575.7,286047000.4,P
1567631595.5,286047001.0,P
1567631615.3,286047000.4,N
1567631635.2,286046999.9,N
1567631655.0,286047000.2,N
1567631655.9,286047000.2,N
1567631675.7,286047002.7,Y
1567631695.6,286047002.4,P
1567631715.4,286047002.1,N
1567631735.3,286047002.3,N
1567631755.1,286046998.5,N
1567631756.0,286046998.5,N
1567631775.8,286047000.6,N
1567631795.7,286047001.1,N
1567631815.5,286047001.1,N
1567631835.4,286047001.1,N
1567631855.2,286047000.4,N
1567631875.0,286046999.7,N
1567631875.9,286046999.7,N
1567631895.8,286047002.8,N
1567631915.6,286047001.5,N
1567631935.4,286047004.3,Y
1567631955.3,286047002.6,P
1567631975.1,286047002.2,N
1567631995.9,286047004.2,P
1567632015.7,286047001.5,N
1567632035.5,286047001.6,N
1567632055.4,286047001.8,N
1567632075.2,286047001.7,N
1567632095.1,286047001.8,N
1567632096.0,286047001.8,N
1567632115.8,286047001.7,N
1567632135.6,286047002.6,Y
1567632155.5,286046998.5,P
1567632175.3,286046999.4,N
1567632195.2,286046998.8,N
1567632215.9,286046998.4,N
1567632235.7,286047001.0,N
1567632255.6,286047000.1,N
1567632275.4,286047000.6,N
1567632295.2,286047002.3,N
1567632315.1,286046999.8,N
1567632316.0,286046999.8,N
1567632335.8,286047002.3,N
1567632355.7,286047001.3,N
1567632375.5,286047001.3,N
1567632395.4,286047001.6,N
1567632415.2,286047001.5,N
1567632435.0,286047001.5,N
1567632435.9,286047001.5,N
1567632455.8,286047002.7,N
1567632475.6,286047002.4,N
1567632495.5,286047002.8,N
1567632515.3,286047002.6,N
1567632535.1,286047001.9,N
1567632555.9,286047002.8,N
1567632575.7,286047002.6,N
1567632595.5,286047002.6,N
1567632615.4,286046999.7,N
1567632635.2,286047001.3,N
1567632655.1,286047004.4,Y
1567632656.0,286047004.4,P
1567632675.8,286047000.1,N
1567632695.6,286047000.9,N
1567632715.5,286046999.7,N
1567632735.3,286047002.6,N
1567632755.2,286047001.8,N
1567632775.9,286047001.7,N
1567632795.7,286047002.2,N
1567632815.6,286047002.0,N
1567632835.4,286047002.1,N
1567632855.2,286046999.8,N
1567632875.1,286046999.8,N
1567632876.0,286046999.8,N
1567632895.8,286047002.6,N
1567632915.7,286047000.1,N
1567632935.5,286047002.8,N
1567632955.3,286047000.0,N
1567632975.2,286047002.4,N
1567632995.0,286047002.0,N
1567632995.9,286047002.0,N
1567633015.8,286047002.3,N
1567633035.6,286046999.9,N
1567633055.4,286047000.4,N
1567633075.3,286047002.7,N
1567633095.1,286047002.8,N
1567633115.9,286046999.8,N
1567633135.7,286047000.2,N
1567633155.5,286047002.7,N
1567633175.4,286047000.4,N
1567633195.2,286046999.8,N
1567633215.0,286047000.3,N
1567633216.0,286047000.3,N
1567633235.8,286047000.0,N
1567633255.6,286046999.9,N
1567633275.5,286047000.8,N
1567633295.3,286047001.2,N
1567633315.1,286047000.8,N
1567633335.9,286047001.0,N
1567633355.7,286046998.4,N
1567633375.6,286046998.1,N
1567633395.4,286046999.3,N
1567633415.2,286046996.6,N
1567633435.1,286046996.9,N
1567633436.0,286046996.9,N
1567633455.8,286046999.6,N
1567633475.7,286046999.5,N
1567633495.5,286046996.7,N
1567633515.3,286046997.1,N
1567633535.2,286046996.6,N
1567633555.0,286046997.7,N
1567633555.9,286046997.7,N
1567633575.7,286046997.4,N
1567633595.6,286046997.6,N
1567633615.4,286046995.0,N
1567633635.3,286046997.5,N
1567633655.1,286046997.5,N
1567633656.0,286046997.5,N
1567633675.8,286046997.1,N
1567633695.7,286046999.1,N
1567633715.5,286046996.8,N
1567633735.4,286046999.1,N
1567633755.2,286046997.1,N
1567633775.0,286046997.3,N
1567633775.9,286046997.3,N
1567633795.8,286046997.0,N
1567633815.6,286046997.4,N
1567633835.5,286046997.2,N
1567633855.3,286046995.0,Y
1567633875.1,286046997.1,P
1567633895.9,286046997.0,P
1567633915.7,286046996.5,P
1567633935.6,286046999.2,N
1567633955.4,286046996.7,Y
1567633975.2,286046998.5,P
1567633995.1,286047000.5,N
1567633996.0,286047000.5,N
1567634015.8,286047001.2,N
1567634035.7,286046998.2,N
1567634055.5,286047000.5,N
1567634075.3,286047000.5,N
1567634095.2,286046999.8,N
1567634115.9,286046999.7,N
1567634135.7,286047000.5,N
1567634155.6,286047000.4,N
1567634175.4,286047000.3,N
1567634195.3,286047000.5,N
1567634215.1,286047001.1,N
1567634216.0,286047001.1,N
1567634235.8,286046998.5,N
1567634255.7,286047001.2,N
1567634275.5,286046998.1,N
1567634295.3,286047000.5,N
1567634315.2,286047000.1,N
1567634335.0,286046999.7,N
1567634335.9,286046999.7,N
1567634355.8,286046999.8,N
1567634375.6,286047002.6,N
1567634395.4,286047002.0,N
